Voltar ao catálogo

SL-12 R/B(2)

AtivoGEO
NORAD 14948·ROCKET BODY·🇷🇺 Russia

Lançado Mar 2, 1984 de Baikonur Cosmodrome

Loading…

TLE

AtualizadoSource: Space-Track

Época: Sep 14, 2026, 06:05 UTC

1 14948U 84022F   26257.25380181  .00000066  00000-0  00000-0 0  9994
2 14948   9.2791 304.1454 0021892 154.4256 218.7908  0.99864834162179

Acompanhe SL-12 R/B(2) em tempo real com AllMySat

Download on the App Store